Accueil
METAR-TAF:

METAR-TAF

Aéroports :

Dübendorf, Suisse

latitude: 47-23-55N, longitude: 8-38-53E, altitude: 448 m

Observation

Le bulletin a été fait il y a 1 heure et 1 minutes, à 00:50 UTC
Vent calme
Température 23°C
Humidité 65%
Pression 1020 hPa
Visibilité 10 km ou plus
Nuages fragmentés à une hauteur de 6600 ft

METAR: LSMD 240050Z AUTO 00000KT 9999NDV BKN066 23/16 Q1020 RMK

Heure: 03:51 (01:51 UTC)


TAF: absent

Observations et prévisions météorologiques de plus de 4000 aéroports (messages METAR et TAF).

Les stations disponibles sont représentées par des disques jaunes et rouges sur la carte.

Passer la souris dessus pour voir le nom de la station.

Cliquer dessus pour voir les observations et prévisions météorologiques.

Pour changer de carte: cliquez sur les boutons verts avec une croix noire pour zoomer, sur le bouton vert avec un tiret pour effectuer un zoom arrière, ou sur les flèches vertes pour les cartes adjacentes.


METAR-TAF: